Temp
72 72 72 74 70 68 69 66 64 62 61 61 61 61 60 60 60 60 62 62 62 58 57 56 56 55 54 53 52 52 50 49
72 71 70 70 69 70 66 64 63 63 60 59 60 59 59 58 59 61 60 60 60 57 56 55 55 53 52 52 50 49 49 48
70 69 68 70 67 64 64 65 64 64 65 65 62 60 59 59 59 58 59 59 59 59 56 54 54 53 51 50 48 47 47 46
68 68 65 65 62 62 63 64 65 65 65 63 61 59 57 56 55 56 58 60 60 57 54 52 51 50 49 48 47 47 44 45
68 66 61 61 61 61 64 65 64 65 64 64 63 58 55 54 55 55 55 56 56 56 53 51 49 48 48 47 51 46 44 41
66 64 63 63 65 65 63 64 64 63 63 61 59 57 55 53 52 52 53 53 54 54 52 50 48 47 47 47 46 44 43 41
65 66 67 67 65 65 66 63 60 59 59 56 55 54 52 51 50 49 50 50 50 50 52 49 48 48 46 45 44 44 42 42
63 61 60 59 60 63 60 59 58 58 56 54 53 52 51 50 49 48 49 48 47 47 48 47 46 47 47 46 44 42 42 40
62 61 60 58 59 59 58 58 57 56 55 54 53 52 50 50 50 50 48 47 47 47 47 47 47 47 46 45 43 42 42 40
61 60 60 59 58 58 57 57 56 55 53 52 52 52 51 50 50 50 47 47 51 47 47 47 46 46 46 45 42 42 41 40
62 62 60 61 60 59 57 57 57 54 52 51 52 51 51 51 50 49 49 47 48 47 46 46 46 46 45 44 43 43 41 40
63 61 62 61 61 58 57 56 54 52 52 51 50 50 52 52 52 48 50 47 48 47 47 46 46 45 44 43 42 43 41 40
63 62 61 60 60 59 57 55 55 54 52 52 51 52 54 52 51 51 47 47 48 47 47 47 46 45 43 43 42 43 42 42
64 61 61 60 59 59 57 56 55 54 54 52 51 54 54 53 52 50 48 47 47 47 48 47 45 46 44 44 42 42 40 40
64 61 61 61 60 59 58 54 55 55 54 52 53 53 53 52 50 50 50 47 47 47 47 46 45 45 46 45 42 39 39 39
62 61 59 61 59 57 57 55 55 54 53 53 54 53 53 51 50 49 49 48 48 47 46 45 45 45 46 41 41 38 37 36
63 61 60 60 58 57 57 55 53 54 52 52 54 52 51 49 48 47 47 47 47 46 45 45 44 46 38 39 38 35 37 35
62 61 60 59 57 59 55 55 54 52 51 54 53 49 48 48 49 48 48 47 45 45 45 44 42 39 38 38 37 34 34 32
61 61 60 58 56 56 54 55 53 52 53 50 48 47 47 48 48 47 45 45 44 44 43 43 40 38 37 37 35 32 32 32
MSLP
1013.84 1014.13 1014.91 1015.53 1016.11 1017.27 1017.75 1018.55 1019.31 1019.88 1020.35 1020.95 1021.42 1021.97 1022.28 1022.43 1022.51 1022.46 1022.50 1022.71 1023.11 1023.66 1024.09 1024.42 1024.42 1024.52 1024.58 1024.55 1024.72 1024.72 1024.75 1024.70
1013.71 1014.12 1014.87 1015.78 1016.33 1016.65 1017.39 1018.24 1019.21 1019.70 1020.66 1020.88 1021.53 1022.11 1022.29 1022.67 1022.40 1022.38 1022.82 1023.22 1023.63 1024.05 1024.29 1024.37 1024.43 1024.66 1024.83 1024.80 1024.89 1024.92 1024.89 1024.73
1013.67 1014.15 1014.83 1015.65 1016.38 1016.93 1017.43 1018.16 1018.80 1019.53 1020.07 1020.48 1020.91 1021.45 1022.11 1022.08 1022.26 1022.76 1023.11 1023.46 1023.67 1023.87 1024.19 1024.50 1024.58 1024.67 1024.80 1024.91 1024.99 1025.13 1025.09 1025.01
1013.85 1014.11 1015.09 1015.96 1016.73 1017.16 1017.55 1018.20 1018.43 1018.98 1019.58 1020.27 1020.87 1021.40 1022.06 1022.52 1022.90 1023.22 1023.27 1023.32 1023.51 1023.84 1024.24 1024.58 1024.75 1024.82 1024.99 1024.92 1024.90 1025.09 1025.36 1025.20
1013.65 1014.17 1015.20 1016.14 1017.02 1017.16 1017.59 1017.99 1018.35 1018.77 1019.42 1019.87 1020.45 1021.36 1022.05 1022.48 1022.79 1023.31 1023.67 1023.57 1023.65 1023.90 1024.19 1024.45 1024.72 1024.89 1025.00 1024.89 1024.63 1024.99 1025.15 1025.62
1013.17 1014.16 1015.09 1015.91 1016.52 1016.96 1017.43 1017.79 1018.24 1018.61 1018.99 1019.31 1020.25 1021.30 1021.86 1022.31 1022.97 1023.44 1023.70 1023.69 1023.81 1024.12 1024.30 1024.39 1024.70 1024.93 1024.98 1024.98 1025.12 1025.17 1025.46 1025.89
1013.20 1013.96 1014.75 1015.52 1016.40 1016.94 1017.40 1018.01 1018.57 1018.68 1019.04 1019.58 1020.23 1021.16 1022.03 1022.61 1023.14 1023.55 1023.73 1023.94 1024.19 1024.35 1024.45 1024.66 1024.85 1024.94 1025.12 1025.32 1025.49 1025.62 1025.69 1025.77
1013.27 1014.27 1015.10 1015.81 1016.54 1017.31 1017.71 1018.25 1019.02 1019.26 1019.67 1020.20 1020.73 1021.28 1021.87 1022.60 1023.15 1023.57 1023.81 1024.14 1024.47 1024.60 1024.60 1024.84 1024.99 1025.05 1025.10 1025.21 1025.41 1025.63 1025.58 1025.62
1013.51 1014.39 1015.08 1016.21 1016.90 1017.42 1017.98 1018.50 1019.16 1019.55 1020.06 1020.63 1021.07 1021.50 1021.99 1022.54 1023.02 1023.40 1023.92 1024.28 1024.55 1024.61 1024.78 1024.89 1024.86 1025.09 1025.13 1024.99 1025.14 1025.42 1025.31 1025.47
1013.68 1014.57 1015.21 1016.14 1016.92 1017.48 1018.16 1018.72 1019.41 1019.95 1020.49 1020.99 1021.50 1021.83 1022.21 1022.65 1023.08 1023.59 1024.15 1024.38 1024.35 1024.73 1024.90 1024.85 1024.96 1025.03 1024.98 1024.88 1025.04 1025.05 1025.21 1025.25
1013.55 1014.33 1015.05 1015.77 1016.47 1017.28 1018.24 1018.82 1019.56 1020.23 1020.82 1021.36 1021.88 1022.25 1022.58 1022.84 1023.22 1023.80 1024.18 1024.21 1024.56 1024.83 1024.86 1024.96 1025.08 1024.87 1024.61 1024.63 1024.81 1024.69 1024.92 1024.90
1013.04 1013.86 1014.57 1015.28 1016.14 1016.91 1017.79 1018.72 1019.51 1020.35 1020.88 1021.49 1022.08 1022.47 1022.74 1022.97 1023.29 1023.62 1023.91 1024.19 1024.37 1024.68 1024.74 1024.96 1025.05 1025.10 1024.95 1024.84 1024.86 1024.48 1024.42 1024.46
1012.08 1012.96 1013.98 1014.96 1015.77 1016.52 1017.20 1018.10 1019.06 1019.89 1020.55 1021.25 1021.91 1022.34 1022.65 1022.91 1023.21 1023.52 1023.82 1024.19 1024.30 1024.36 1024.47 1024.63 1024.66 1024.80 1024.70 1024.73 1024.88 1024.68 1024.50 1024.35
1011.55 1012.45 1013.27 1014.18 1015.09 1015.82 1016.57 1017.47 1018.39 1019.23 1020.00 1020.74 1021.44 1021.92 1022.35 1022.74 1023.00 1023.31 1023.72 1023.93 1024.01 1024.18 1024.21 1024.22 1024.11 1024.05 1024.12 1024.31 1024.53 1024.54 1024.81 1024.92
1011.01 1011.87 1012.55 1013.29 1014.07 1014.90 1015.93 1016.87 1017.68 1018.56 1019.39 1020.20 1020.82 1021.38 1021.85 1022.34 1022.82 1023.12 1023.34 1023.46 1023.80 1023.92 1023.93 1024.07 1023.89 1023.81 1023.65 1023.97 1024.40 1024.54 1024.60 1024.62
1010.73 1011.31 1012.26 1013.03 1013.93 1014.77 1015.67 1016.47 1017.27 1017.94 1018.89 1019.65 1020.25 1020.71 1021.45 1022.16 1022.59 1022.79 1023.13 1023.35 1023.50 1023.39 1023.35 1023.40 1023.31 1023.46 1023.60 1023.90 1023.87 1024.06 1024.27 1024.50
1010.59 1011.46 1011.97 1012.68 1013.53 1014.52 1015.30 1016.09 1016.79 1017.46 1018.35 1019.16 1019.77 1020.66 1021.27 1021.75 1022.45 1022.55 1022.87 1022.99 1022.97 1022.88 1023.01 1023.07 1022.96 1023.20 1023.42 1023.57 1024.03 1024.06 1024.32 1024.50
1010.89 1011.54 1012.06 1012.70 1013.38 1013.95 1014.83 1015.64 1016.37 1017.25 1018.22 1018.98 1019.59 1020.42 1021.18 1021.71 1022.01 1022.67 1022.99 1022.88 1022.64 1022.55 1022.45 1022.47 1022.46 1022.79 1023.17 1023.39 1023.75 1024.07 1024.23 1024.37
1011.29 1011.67 1012.24 1012.73 1013.15 1013.76 1014.52 1015.51 1016.51 1017.42 1018.43 1019.35 1019.87 1020.35 1021.29 1021.93 1022.52 1022.82 1022.93 1022.90 1022.79 1022.43 1022.31 1022.14 1022.25 1022.68 1022.99 1023.19 1023.66 1023.90 1024.10 1024.31
Wind_Speed
9 9 14 18 15 12 13 11 12 9 6 5 3 4 4 4 3 4 6 6 7 6 5 6 5 4 5 4 5 3 2 2
8 6 10 13 15 16 14 16 12 9 4 4 3 4 3 3 4 8 7 6 7 6 4 5 5 4 3 3 2 3 3 3
8 8 9 17 15 12 11 14 14 9 7 5 4 5 4 4 5 6 7 7 6 5 5 3 3 3 5 4 3 3 2 3
9 9 9 13 14 12 12 12 12 9 8 5 5 5 4 3 4 4 4 6 5 7 7 5 5 4 3 3 3 3 0 3
11 10 9 11 12 7 12 12 10 8 8 10 14 6 5 3 4 3 4 6 6 6 6 6 5 3 4 3 1 1 2 3
13 11 12 12 13 12 9 7 7 6 8 9 9 9 6 4 5 7 5 5 7 7 6 6 6 4 4 6 5 5 4 3
9 12 12 10 7 8 9 9 7 9 10 8 11 13 8 6 4 4 3 3 4 6 6 5 4 4 4 3 3 5 4 3
14 13 9 8 11 9 8 10 9 10 11 9 9 9 9 8 6 4 4 2 2 3 4 5 3 4 3 3 4 3 2 1
13 13 11 9 9 8 8 10 9 9 8 8 7 8 5 5 5 4 3 3 2 4 4 4 5 5 2 3 2 1 2 1
12 11 12 10 9 8 8 9 8 8 8 7 6 6 6 6 6 6 4 4 3 4 3 4 4 4 3 2 2 3 3 3
13 12 13 11 11 8 8 8 10 8 8 7 5 6 6 6 6 5 5 5 3 2 3 4 4 5 5 3 3 2 3 4
15 12 14 14 12 9 9 9 10 9 8 6 7 5 5 5 5 5 6 4 3 1 2 3 5 6 6 3 3 3 2 3
15 15 15 14 14 12 10 10 12 11 8 7 7 6 6 6 5 5 6 5 3 3 0 3 5 2 2 2 4 5 3 4
14 13 16 16 13 13 11 12 13 12 10 8 7 6 6 6 6 5 6 5 5 3 2 5 4 4 1 3 4 5 5 4
14 13 15 16 15 15 13 10 13 12 10 9 8 8 7 5 5 5 5 4 5 3 4 6 6 6 4 4 4 4 4 4
8 14 12 12 12 11 11 9 12 11 9 8 8 7 7 6 4 4 2 3 4 6 6 6 5 5 3 5 4 4 3 3
6 9 11 13 12 12 11 11 11 12 9 7 6 7 8 7 4 1 4 5 6 6 6 6 5 3 10 9 6 4 2 2
7 7 9 9 11 13 12 13 11 9 8 8 8 8 7 5 5 4 5 6 5 6 6 5 3 6 12 11 9 4 1 2
6 3 5 7 7 8 9 11 10 9 8 9 7 9 8 8 6 5 6 4 6 5 5 6 5 5 13 12 9 4 2 2
Wind_Direction
151 160 147 151 146 140 148 126 130 118 120 127 140 118 171 144 156 102 108 86 71 65 52 47 55 47 29 20 30 0 10 325
148 131 135 138 141 146 143 139 140 129 154 137 150 164 134 128 111 92 79 80 69 75 68 60 44 54 35 36 37 14 322 358
145 137 111 143 149 150 139 141 144 155 162 180 158 159 143 143 101 96 96 90 94 101 94 77 53 39 24 15 18 335 321 26
162 148 121 131 137 148 146 153 160 164 180 126 105 93 84 88 97 107 128 123 94 76 73 69 45 43 6 341 349 75 346 326
161 152 124 136 139 154 160 173 171 176 155 139 146 147 147 155 133 119 98 103 91 94 90 74 55 30 1 322 311 221 129 55
159 148 144 153 156 154 184 156 153 145 160 134 128 122 116 104 104 115 99 79 75 71 66 53 31 13 344 338 345 64 74 99
137 144 143 142 127 127 133 128 104 95 94 100 116 122 125 112 115 106 95 90 77 65 57 52 25 356 2 45 71 64 69 74
130 128 126 116 119 128 127 115 113 108 105 104 109 121 119 123 127 125 101 84 64 45 58 35 5 348 105 87 66 50 36 20
136 138 129 130 129 134 121 125 125 117 115 115 114 118 122 123 121 115 106 99 101 58 46 21 7 3 243 139 105 316 295 311
141 142 141 141 144 154 144 132 125 124 120 114 112 115 116 128 121 103 115 99 75 50 26 18 357 350 311 229 149 280 316 281
155 156 156 158 157 158 151 140 142 138 127 124 129 135 140 136 128 129 123 111 76 32 17 12 334 315 311 225 218 272 250 281
167 166 166 164 162 158 158 144 139 135 135 137 147 163 158 149 146 152 143 129 129 77 25 331 303 303 330 8 307 282 305 313
171 164 162 165 165 165 160 149 146 150 150 148 167 169 179 169 175 166 152 156 166 150 178 293 292 190 333 343 293 287 301 92
174 162 166 167 168 168 162 153 154 157 154 156 171 185 188 184 182 168 163 180 176 170 263 280 261 219 285 316 56 50 53 80
181 169 171 169 171 166 164 155 157 160 156 166 173 183 187 180 154 160 192 186 168 202 255 266 262 224 181 129 99 64 36 18
193 171 168 168 165 162 168 163 159 156 155 160 183 181 151 150 112 78 61 178 209 226 243 253 270 210 147 143 131 119 74 8
63 171 166 174 170 167 173 166 157 153 153 165 132 122 126 110 123 55 279 268 263 250 255 246 261 177 161 149 147 131 78 356
62 139 175 165 163 171 174 165 156 145 144 146 130 120 106 108 54 358 310 282 281 263 250 256 230 166 170 152 148 144 158 280
55 77 136 172 172 170 144 145 142 137 125 105 103 84 80 55 20 329 317 317 285 260 263 264 167 185 174 161 149 145 209 284